Home   Weather   Jakobstad   Past weeks

Flag for Finland Past Weather in Jakobstad, Finland — Yesterday and Last 2 Weeks

Now
25 °F

Clear.


Feels Like: 20 °F
Forecast: 29 / 37 °F
Wind: 3 mph from Southwest

Location: Kruunupyy

Current Time: Jan 21, 2017 at 5:28:14 pm

Latest Report: Jan 21, 2017 at 4:50 pm


Visibility: 10 mi

Pressure: 30.12 "Hg

Humidity: 93%

Dew Point: 23 °F

Location of JakobstadLocation

Past Weather in Jakobstad — Graph

°F

Jakobstad Temperature Yesterday

Maximum temperature yesterday: 34 °F (at 10:50 am)
Minimum temperature yesterday: 28 °F (at 1:20 am)
Average temperature yesterday: 32 °F

High & Low Weather Summary for the Past Weeks

 TemperatureHumidityPressure
High43 °F (Jan 19, 2:50 am)100% (Jan 7, 6:50 am)30.30 "Hg (Jan 7, 6:50 am)
Low9 °F (Jan 6, 4:20 pm)44% (Jan 19, 7:50 pm)28.94 "Hg (Jan 12, 8:20 am)
Average30 °F86%29.69 "Hg
* Reported Jan 6 4:20 pm — Jan 21 4:20 pm, Jakobstad, Weather by CustomWeather, © 2017

Note: Actual official high and low records may vary slightly from our data, if they occured in-between our weather recording intervals... More about our weather records

Advertising

Jakobstad Weather History for the Previous 24 Hours

Scroll right to see more
 ConditionsComfort  
Time TempWeatherWind HumidityBarometerVisibility
4:20 pm
Sat, Jan 21
23 °FClear.3 mph86%30.12 "Hg10 mi
3:50 pm25 °FClear.3 mph93%30.12 "Hg10 mi
3:20 pm28 °FSunny.3 mph80%30.12 "Hg10 mi
2:50 pm28 °FSunny.3 mph74%30.15 "Hg10 mi
2:20 pm30 °FSunny.1 mph69%30.15 "Hg10 mi
1:50 pm30 °FSunny.5 mph69%30.15 "Hg10 mi
1:20 pm30 °FPassing clouds.5 mph75%30.12 "HgN/A
12:50 pm30 °FPassing clouds.6 mph75%30.12 "HgN/A
12:20 pm30 °FPassing clouds.7 mph75%30.12 "HgN/A
11:50 am30 °FPassing clouds.7 mph75%30.12 "HgN/A
11:20 am30 °FSunny.6 mph75%30.09 "Hg10 mi
10:50 am30 °FPassing clouds.7 mph75%30.09 "HgN/A
10:20 am30 °FSunny.10 mph75%30.07 "Hg10 mi
9:50 am30 °FPassing clouds.12 mph75%30.07 "HgN/A
9:20 am30 °FClear.14 mph75%30.04 "Hg10 mi
8:50 am30 °FPassing clouds.13 mph75%30.04 "HgN/A
8:20 am32 °FPassing clouds.13 mph69%30.01 "HgN/A
7:50 am32 °FPassing clouds.15 mph69%30.01 "HgN/A
7:20 am32 °FPassing clouds.17 mph75%29.98 "HgN/A
6:50 am32 °FPassing clouds.15 mph75%29.98 "HgN/A
6:20 am32 °FPassing clouds.14 mph69%29.95 "HgN/A
5:50 am32 °FPassing clouds.12 mph69%29.98 "HgN/A
5:20 am32 °FPassing clouds.12 mph69%29.95 "HgN/A
4:50 am32 °FPassing clouds.12 mph75%29.95 "HgN/A
4:20 am32 °FPassing clouds.9 mph69%29.95 "HgN/A
3:50 am30 °FPassing clouds.12 mph75%29.95 "HgN/A
3:20 am32 °FPassing clouds.10 mph69%29.95 "HgN/A
2:50 am30 °FPassing clouds.8 mph75%29.95 "HgN/A
2:20 am32 °FPassing clouds.12 mph69%29.95 "HgN/A
1:50 am32 °FClear.13 mph69%29.95 "Hg10 mi
1:20 am32 °FPassing clouds.12 mph75%29.92 "HgN/A
12:50 am32 °FPassing clouds.13 mph75%29.95 "HgN/A
12:20 am32 °FClear.13 mph75%29.92 "Hg10 mi
11:50 pm
Fri, Jan 20
32 °FPassing clouds.12 mph75%29.92 "HgN/A
11:20 pm32 °FPassing clouds.10 mph75%29.92 "HgN/A
10:50 pm32 °FPassing clouds.12 mph75%29.92 "HgN/A
10:20 pm32 °FPassing clouds.13 mph75%29.92 "HgN/A
9:50 pm32 °FPassing clouds.14 mph75%29.89 "HgN/A
9:20 pm32 °FPassing clouds.12 mph75%29.89 "HgN/A
8:50 pm32 °FPassing clouds.10 mph75%29.89 "HgN/A
8:20 pm32 °FPassing clouds.10 mph75%29.89 "HgN/A
7:50 pm32 °FPassing clouds.9 mph75%29.86 "HgN/A
7:20 pm32 °FClear.8 mph75%29.86 "Hg10 mi
6:50 pm32 °FClear.9 mph75%29.86 "Hg10 mi
6:20 pm32 °FPassing clouds.10 mph75%29.86 "HgN/A
5:50 pm32 °FPassing clouds.12 mph75%29.86 "HgN/A
5:20 pm32 °FClear.12 mph75%29.83 "Hg10 mi
Weather by CustomWeather, © 2017

See weather overviewHow to use our weather pages